| time (UTC) | temp F | wind direction | speed MPH | gust MPH | rain 1hr in | rain 24hr in | rain mn in | humidity % | barometer mb |
| 20260831214003 | 78 | 71 | 1.0 | 3.0 | 0.00 | 0.00 | 0.00 | 81 | 1018.9 |
| 20260831213501 | 79 | 71 | 1.0 | 3.0 | 0.00 | 0.00 | 0.00 | 82 | 1018.9 |
| 20260831212502 | 80 | 71 | 2.0 | 8.0 | 0.00 | 0.00 | 0.00 | 80 | 1018.7 |
| 20260831211502 | 81 | 142 | 2.0 | 7.0 | 0.00 | 0.00 | 0.00 | 80 | 1018.6 |
| 20260831211002 | 80 | 104 | 2.0 | 7.0 | 0.00 | 0.00 | 0.00 | 79 | 1018.6 |
| 20260831210501 | 80 | 128 | 2.0 | 5.0 | 0.00 | 0.00 | 0.00 | 80 | 1018.7 |
| 20260831210006 | 80 | 157 | 2.0 | 5.0 | 0.00 | 0.00 | 0.00 | 79 | 1018.5 |
| 20260831205502 | 81 | 131 | 3.0 | 6.0 | 0.00 | 0.00 | 0.00 | 78 | 1018.6 |
| 20260831205003 | 82 | 67 | 3.0 | 6.0 | 0.00 | 0.00 | 0.00 | 77 | 1018.6 |
| 20260831204004 | 82 | 98 | 2.0 | 8.0 | 0.00 | 0.00 | 0.00 | 76 | 1018.4 |
| 20260831203006 | 83 | 86 | 3.0 | 7.0 | 0.00 | 0.00 | 0.00 | 76 | 1018.2 |
| 20260831202502 | 83 | 84 | 3.0 | 6.0 | 0.00 | 0.00 | 0.00 | 76 | 1018.1 |
| 20260831202003 | 83 | 82 | 3.0 | 9.0 | 0.00 | 0.00 | 0.00 | 77 | 1018.1 |
| 20260831200503 | 84 | 103 | 3.0 | 6.0 | 0.00 | 0.00 | 0.00 | 77 | 1018.1 |
| 20260831195502 | 83 | 49 | 3.0 | 6.0 | 0.00 | 0.00 | 0.00 | 77 | 1018.2 |
| 20260831195004 | 82 | 47 | 3.0 | 6.0 | 0.00 | 0.00 | 0.00 | 80 | 1018.2 |
| 20260831194501 | 82 | 44 | 3.0 | 5.0 | 0.00 | 0.00 | 0.00 | 80 | 1018.2 |
| 20260831194002 | 82 | 36 | 2.0 | 5.0 | 0.00 | 0.00 | 0.00 | 79 | 1018.3 |
| 20260831193501 | 83 | 345 | 2.0 | 5.0 | 0.00 | 0.00 | 0.00 | 79 | 1018.3 |
| 20260831193002 | 83 | 334 | 2.0 | 5.0 | 0.00 | 0.00 | 0.00 | 79 | 1018.3 |
| 20260831192502 | 84 | 54 | 2.0 | 4.0 | 0.00 | 0.00 | 0.00 | 78 | 1018.3 |
| 20260831192002 | 84 | 53 | 2.0 | 5.0 | 0.00 | 0.00 | 0.00 | 78 | 1018.3 |
| 20260831191501 | 83 | 54 | 2.0 | 5.0 | 0.00 | 0.00 | 0.00 | 79 | 1018.3 |
| 20260831191002 | 83 | 54 | 2.0 | 5.0 | 0.00 | 0.00 | 0.00 | 80 | 1018.4 |
| 20260831190005 | 83 | 53 | 3.0 | 5.0 | 0.00 | 0.00 | 0.00 | 78 | 1018.5 |
| 20260831185503 | 84 | 53 | 3.0 | 6.0 | 0.00 | 0.00 | 0.00 | 77 | 1018.5 |
| 20260831185004 | 84 | 17 | 3.0 | 6.0 | 0.00 | 0.00 | 0.00 | 78 | 1018.5 |
| 20260831184503 | 83 | 90 | 2.0 | 6.0 | 0.00 | 0.00 | 0.00 | 79 | 1018.5 |
| 20260831184003 | 83 | 95 | 2.0 | 4.0 | 0.00 | 0.00 | 0.00 | 79 | 1018.4 |
| 20260831183502 | 83 | 95 | 3.0 | 6.0 | 0.00 | 0.00 | 0.00 | 80 | 1018.4 |
| 20260831183005 | 83 | 95 | 3.0 | 6.0 | 0.00 | 0.00 | 0.00 | 79 | 1018.5 |
| 20260831182503 | 83 | 123 | 2.0 | 6.0 | 0.00 | 0.00 | 0.00 | 78 | 1018.4 |
| 20260831181503 | 83 | 69 | 2.0 | 4.0 | 0.00 | 0.00 | 0.00 | 78 | 1018.4 |
| 20260831181003 | 84 | 69 | 2.0 | 6.0 | 0.00 | 0.00 | 0.00 | 77 | 1018.5 |
| 20260831180503 | 84 | 67 | 2.0 | 6.0 | 0.00 | 0.00 | 0.00 | 76 | 1018.5 |
| 20260831180006 | 84 | 66 | 3.0 | 6.0 | 0.00 | 0.00 | 0.00 | 76 | 1018.5 |
| 20260831175003 | 84 | 78 | 2.0 | 5.0 | 0.00 | 0.00 | 0.00 | 76 | 1018.5 |
| 20260831174501 | 84 | 82 | 1.0 | 4.0 | 0.00 | 0.00 | 0.00 | 77 | 1018.5 |
| 20260831174002 | 84 | 80 | 1.0 | 4.0 | 0.00 | 0.00 | 0.00 | 77 | 1018.6 |
| 20260831173500 | 84 | 80 | 2.0 | 5.0 | 0.00 | 0.00 | 0.00 | 76 | 1018.6 |
| 20260831172502 | 84 | 88 | 2.0 | 6.0 | 0.00 | 0.00 | 0.00 | 75 | 1018.5 |
| 20260831172004 | 85 | 213 | 2.0 | 4.0 | 0.00 | 0.00 | 0.00 | 74 | 1018.7 |
| 20260831171501 | 85 | 90 | 2.0 | 6.0 | 0.00 | 0.00 | 0.00 | 77 | 1018.6 |
| 20260831171003 | 85 | 89 | 2.0 | 6.0 | 0.00 | 0.00 | 0.00 | 76 | 1018.7 |
| 20260831170502 | 84 | 59 | 2.0 | 5.0 | 0.00 | 0.00 | 0.00 | 75 | 1018.7 |
| 20260831170005 | 84 | 58 | 2.0 | 4.0 | 0.00 | 0.00 | 0.00 | 75 | 1018.7 |
| 20260831165502 | 84 | 86 | 3.0 | 8.0 | 0.00 | 0.00 | 0.00 | 73 | 1018.7 |
| 20260831165005 | 84 | 86 | 3.0 | 8.0 | 0.00 | 0.00 | 0.00 | 74 | 1018.7 |
| 20260831164002 | 84 | 77 | 3.0 | 6.0 | 0.00 | 0.00 | 0.00 | 74 | 1018.8 |
| 20260831163501 | 84 | 69 | 3.0 | 6.0 | 0.00 | 0.00 | 0.00 | 74 | 1018.9 |
| 20260831163003 | 84 | 92 | 2.0 | 6.0 | 0.00 | 0.00 | 0.00 | 73 | 1019.0 |
| 20260831162502 | 85 | 78 | 3.0 | 6.0 | 0.00 | 0.00 | 0.00 | 76 | 1019.1 |
| 20260831162002 | 84 | 78 | 2.0 | 6.0 | 0.00 | 0.00 | 0.00 | 75 | 1019.1 |
| 20260831161002 | 84 | 133 | 2.0 | 4.0 | 0.00 | 0.00 | 0.00 | 75 | 1019.1 |
| 20260831160502 | 83 | 134 | 3.0 | 5.0 | 0.00 | 0.00 | 0.00 | 77 | 1019.2 |
| 20260831160002 | 83 | 122 | 3.0 | 6.0 | 0.00 | 0.00 | 0.00 | 76 | 1019.2 |
| 20260831155502 | 83 | 46 | 3.0 | 6.0 | 0.00 | 0.00 | 0.00 | 74 | 1019.1 |
| 20260831155003 | 84 | 92 | 2.0 | 6.0 | 0.00 | 0.00 | 0.00 | 76 | 1019.2 |
| 20260831154002 | 82 | 115 | 3.0 | 8.0 | 0.00 | 0.00 | 0.00 | 77 | 1019.2 |
| 20260831153501 | 83 | 192 | 3.0 | 8.0 | 0.00 | 0.00 | 0.00 | 76 | 1019.2 |
| 20260831153003 | 83 | 71 | 3.0 | 6.0 | 0.00 | 0.00 | 0.00 | 74 | 1019.4 |
| 20260831152503 | 82 | 101 | 3.0 | 7.0 | 0.00 | 0.00 | 0.00 | 75 | 1019.4 |
| 20260831152003 | 83 | 99 | 3.0 | 7.0 | 0.00 | 0.00 | 0.00 | 75 | 1019.3 |
| 20260831151501 | 82 | 47 | 3.0 | 7.0 | 0.00 | 0.00 | 0.00 | 75 | 1019.4 |
| 20260831151002 | 83 | 97 | 3.0 | 7.0 | 0.00 | 0.00 | 0.00 | 75 | 1019.3 |
| 20260831150502 | 83 | 85 | 3.0 | 6.0 | 0.00 | 0.00 | 0.00 | 77 | 1019.3 |
| 20260831150005 | 83 | 80 | 3.0 | 6.0 | 0.00 | 0.00 | 0.00 | 76 | 1019.2 |
| 20260831145502 | 82 | 90 | 3.0 | 7.0 | 0.00 | 0.00 | 0.00 | 77 | 1019.2 |
| 20260831145003 | 82 | 90 | 3.0 | 8.0 | 0.00 | 0.00 | 0.00 | 76 | 1019.2 |
| 20260831144502 | 82 | 100 | 3.0 | 8.0 | 0.00 | 0.00 | 0.00 | 74 | 1019.2 |
| 20260831144003 | 82 | 82 | 3.0 | 8.0 | 0.00 | 0.00 | 0.00 | 76 | 1019.1 |
| 20260831143003 | 82 | 82 | 2.0 | 6.0 | 0.00 | 0.00 | 0.00 | 78 | 1019.2 |
| 20260831142502 | 82 | 129 | 2.0 | 5.0 | 0.00 | 0.00 | 0.00 | 78 | 1019.1 |
| 20260831142002 | 81 | 53 | 3.0 | 7.0 | 0.00 | 0.00 | 0.00 | 77 | 1019.1 |
| 20260831141501 | 81 | 87 | 3.0 | 7.0 | 0.00 | 0.00 | 0.00 | 78 | 1019.1 |
| 20260831141003 | 81 | 96 | 2.0 | 4.0 | 0.00 | 0.00 | 0.00 | 78 | 1019.1 |
| 20260831140502 | 81 | 101 | 2.0 | 4.0 | 0.00 | 0.00 | 0.00 | 79 | 1019.1 |
| 20260831135502 | 80 | 109 | 3.0 | 7.0 | 0.00 | 0.00 | 0.00 | 81 | 1019.2 |
| 20260831135002 | 80 | 121 | 3.0 | 7.0 | 0.00 | 0.00 | 0.00 | 80 | 1019.3 |
| 20260831134500 | 80 | 98 | 2.0 | 6.0 | 0.00 | 0.00 | 0.00 | 81 | 1019.4 |
| 20260831134001 | 80 | 92 | 2.0 | 4.0 | 0.00 | 0.00 | 0.00 | 81 | 1019.4 |
| 20260831133506 | 80 | 99 | 2.0 | 4.0 | 0.00 | 0.00 | 0.00 | 83 | 1019.3 |
| 20260831133001 | 80 | 98 | 2.0 | 4.0 | 0.00 | 0.00 | 0.00 | 83 | 1019.3 |
| 20260831132501 | 79 | 103 | 2.0 | 6.0 | 0.00 | 0.00 | 0.00 | 83 | 1019.4 |
| 20260831132002 | 80 | 102 | 2.0 | 6.0 | 0.00 | 0.00 | 0.00 | 84 | 1019.2 |
| 20260831131501 | 80 | 84 | 2.0 | 6.0 | 0.00 | 0.00 | 0.00 | 85 | 1019.2 |
| 20260831131001 | 79 | 86 | 2.0 | 6.0 | 0.00 | 0.00 | 0.00 | 86 | 1019.2 |
| 20260831130502 | 79 | 248 | 2.0 | 4.0 | 0.00 | 0.00 | 0.00 | 88 | 1019.3 |
| 20260831130003 | 79 | 252 | 2.0 | 4.0 | 0.00 | 0.00 | 0.00 | 89 | 1019.4 |
| 20260831125500 | 79 | 252 | 1.0 | 4.0 | 0.00 | 0.00 | 0.00 | 90 | 1019.3 |
| 20260831125001 | 78 | 252 | 1.0 | 3.0 | 0.00 | 0.00 | 0.00 | 91 | 1019.2 |
| 20260831124459 | 78 | 252 | 1.0 | 3.0 | 0.00 | 0.00 | 0.00 | 92 | 1019.2 |
| 20260831124001 | 77 | 252 | 0.0 | 2.0 | 0.00 | 0.00 | 0.00 | 93 | 1019.2 |
| 20260831123501 | 77 | 252 | 0.0 | 2.0 | 0.00 | 0.00 | 0.00 | 93 | 1019.1 |
| 20260831123002 | 76 | 252 | 1.0 | 3.0 | 0.00 | 0.00 | 0.00 | 93 | 1019.2 |
| 20260831122500 | 76 | 252 | 1.0 | 3.0 | 0.00 | 0.00 | 0.00 | 93 | 1019.1 |
| 20260831122002 | 76 | 252 | 0.0 | 2.0 | 0.00 | 0.00 | 0.00 | 93 | 1019.1 |
| 20260831121001 | 75 | 252 | 0.0 | 1.0 | 0.00 | 0.00 | 0.00 | 93 | 1018.9 |
| 20260831120501 | 75 | 252 | 0.0 | 1.0 | 0.00 | 0.00 | 0.00 | 93 | 1018.9 |
| 20260831120005 | 75 | 252 | 0.0 | 2.0 | 0.00 | 0.00 | 0.00 | 93 | 1019.0 |
| 20260831115500 | 75 | 252 | 1.0 | 2.0 | 0.00 | 0.00 | 0.00 | 94 | 1019.0 |
| 20260831114501 | 74 | 252 | 0.0 | 1.0 | 0.00 | 0.00 | 0.00 | 94 | 1019.0 |
| 20260831114001 | 74 | 252 | 0.0 | 1.0 | 0.00 | 0.00 | 0.00 | 94 | 1019.0 |
| 20260831113003 | 74 | 252 | 0.0 | 1.0 | 0.00 | 0.00 | 0.00 | 94 | 1019.1 |
| 20260831112500 | 74 | 252 | 0.0 | 1.0 | 0.00 | 0.00 | 0.00 | 94 | 1019.0 |
| 20260831111501 | 74 | 252 | 0.0 | 1.0 | 0.00 | 0.00 | 0.00 | 94 | 1018.9 |
| 20260831110000 | 73 | 252 | 0.0 | 1.0 | 0.00 | 0.00 | 0.00 | 94 | 1018.7 |
| 20260831105500 | 73 | 252 | 0.0 | 1.0 | 0.00 | 0.00 | 0.00 | 94 | 1018.7 |
| 20260831105000 | 73 | 252 | 0.0 | 2.0 | 0.00 | 0.00 | 0.00 | 94 | 1018.6 |
| 20260831104000 | 73 | 252 | 1.0 | 2.0 | 0.00 | 0.00 | 0.00 | 94 | 1018.6 |
| 20260831103459 | 73 | 252 | 0.0 | 1.0 | 0.00 | 0.00 | 0.00 | 94 | 1018.4 |
| 20260831103000 | 73 | 252 | 0.0 | 1.0 | 0.00 | 0.00 | 0.00 | 94 | 1018.3 |
| 20260831102459 | 73 | 252 | 0.0 | 1.0 | 0.00 | 0.00 | 0.00 | 94 | 1018.2 |
| 20260831101500 | 72 | 252 | 1.0 | 2.0 | 0.00 | 0.00 | 0.00 | 94 | 1018.2 |
| 20260831101000 | 73 | 252 | 0.0 | 1.0 | 0.00 | 0.00 | 0.00 | 94 | 1018.1 |
| 20260831100500 | 73 | 252 | 0.0 | 1.0 | 0.00 | 0.00 | 0.00 | 93 | 1018.0 |
| 20260831100000 | 73 | 252 | 0.0 | 1.0 | 0.00 | 0.00 | 0.00 | 93 | 1018.1 |
| 20260831095500 | 73 | 252 | 0.0 | 0.0 | 0.00 | 0.00 | 0.00 | 94 | 1018.1 |
| 20260831095000 | 73 | 252 | 0.0 | 0.0 | 0.00 | 0.00 | 0.00 | 94 | 1018.0 |
| 20260831094459 | 73 | 252 | 0.0 | 1.0 | 0.00 | 0.00 | 0.00 | 93 | 1018.1 |
| 20260831094000 | 73 | 252 | 0.0 | 1.0 | 0.00 | 0.00 | 0.00 | 93 | 1018.0 |
| 20260831093459 | 73 | 252 | 0.0 | 1.0 | 0.00 | 0.00 | 0.00 | 94 | 1017.9 |
| 20260831092959 | 73 | 252 | 0.0 | 1.0 | 0.00 | 0.00 | 0.00 | 93 | 1018.0 |
| 20260831092500 | 73 | 252 | 0.0 | 2.0 | 0.00 | 0.00 | 0.00 | 94 | 1018.0 |
| 20260831092005 | 73 | 252 | 0.0 | 2.0 | 0.00 | 0.00 | 0.00 | 93 | 1017.9 |
| 20260831091500 | 73 | 252 | 0.0 | 1.0 | 0.00 | 0.00 | 0.00 | 93 | 1017.9 |
| 20260831091000 | 73 | 252 | 0.0 | 0.0 | 0.00 | 0.00 | 0.00 | 94 | 1018.0 |
| 20260831090500 | 73 | 252 | 0.0 | 1.0 | 0.00 | 0.00 | 0.00 | 94 | 1018.0 |
| 20260831090000 | 73 | 252 | 1.0 | 2.0 | 0.00 | 0.00 | 0.00 | 93 | 1018.0 |
| 20260831085459 | 73 | 252 | 1.0 | 2.0 | 0.00 | 0.00 | 0.00 | 94 | 1018.0 |
| 20260831085004 | 73 | 252 | 0.0 | 1.0 | 0.00 | 0.00 | 0.00 | 93 | 1017.9 |
| 20260831084500 | 73 | 252 | 1.0 | 2.0 | 0.00 | 0.00 | 0.00 | 93 | 1017.9 |
| 20260831084000 | 73 | 252 | 1.0 | 3.0 | 0.00 | 0.00 | 0.00 | 93 | 1017.8 |
| 20260831083459 | 73 | 252 | 0.0 | 3.0 | 0.00 | 0.00 | 0.00 | 93 | 1017.8 |
| 20260831083001 | 73 | 252 | 0.0 | 2.0 | 0.00 | 0.00 | 0.00 | 93 | 1017.9 |
| 20260831082500 | 73 | 252 | 0.0 | 2.0 | 0.00 | 0.00 | 0.00 | 93 | 1017.8 |
| 20260831082001 | 73 | 252 | 0.0 | 1.0 | 0.00 | 0.00 | 0.00 | 93 | 1017.9 |
| 20260831081500 | 73 | 252 | 0.0 | 1.0 | 0.00 | 0.00 | 0.00 | 93 | 1017.9 |
| 20260831081001 | 73 | 252 | 0.0 | 0.0 | 0.00 | 0.00 | 0.00 | 93 | 1018.0 |
| 20260831080459 | 73 | 252 | 0.0 | 0.0 | 0.00 | 0.00 | 0.00 | 93 | 1018.0 |
| 20260831080000 | 74 | 252 | 0.0 | 2.0 | 0.00 | 0.00 | 0.00 | 93 | 1018.0 |
| 20260831075500 | 74 | 252 | 1.0 | 2.0 | 0.00 | 0.00 | 0.00 | 93 | 1018.0 |
| 20260831075002 | 74 | 252 | 0.0 | 1.0 | 0.00 | 0.00 | 0.00 | 93 | 1018.1 |
| 20260831074500 | 74 | 252 | 0.0 | 2.0 | 0.00 | 0.00 | 0.00 | 93 | 1018.0 |
| 20260831074004 | 74 | 252 | 0.0 | 2.0 | 0.00 | 0.00 | 0.00 | 93 | 1018.0 |
| 20260831073500 | 74 | 252 | 0.0 | 2.0 | 0.00 | 0.00 | 0.00 | 93 | 1018.0 |
| 20260831073002 | 74 | 252 | 0.0 | 3.0 | 0.00 | 0.00 | 0.00 | 93 | 1018.1 |
| 20260831072002 | 74 | 252 | 0.0 | 2.0 | 0.00 | 0.00 | 0.00 | 93 | 1018.0 |
| 20260831071500 | 74 | 252 | 0.0 | 2.0 | 0.00 | 0.00 | 0.00 | 93 | 1018.1 |
| 20260831070501 | 74 | 252 | 0.0 | 2.0 | 0.00 | 0.00 | 0.00 | 93 | 1018.2 |
| 20260831070000 | 73 | 252 | 0.0 | 2.0 | 0.00 | 0.00 | 0.00 | 93 | 1018.2 |
| 20260831065459 | 73 | 252 | 0.0 | 1.0 | 0.00 | 0.00 | 0.00 | 93 | 1018.2 |
| 20260831065000 | 73 | 252 | 0.0 | 1.0 | 0.00 | 0.00 | 0.00 | 93 | 1018.2 |
| 20260831064500 | 73 | 252 | 0.0 | 1.0 | 0.00 | 0.00 | 0.00 | 93 | 1018.2 |
| 20260831064000 | 74 | 252 | 0.0 | 1.0 | 0.00 | 0.00 | 0.00 | 93 | 1018.3 |
| 20260831063458 | 74 | 252 | 0.0 | 1.0 | 0.00 | 0.00 | 0.00 | 92 | 1018.2 |
| 20260831063000 | 74 | 252 | 0.0 | 1.0 | 0.00 | 0.00 | 0.00 | 92 | 1018.3 |
| 20260831062500 | 74 | 252 | 0.0 | 1.0 | 0.00 | 0.00 | 0.00 | 92 | 1018.3 |
| 20260831062001 | 74 | 252 | 0.0 | 2.0 | 0.00 | 0.00 | 0.00 | 92 | 1018.3 |
| 20260831061459 | 74 | 252 | 0.0 | 2.0 | 0.00 | 0.00 | 0.00 | 92 | 1018.3 |
| 20260831060459 | 74 | 252 | 0.0 | 3.0 | 0.00 | 0.00 | 0.00 | 92 | 1018.4 |
| 20260831060000 | 74 | 252 | 0.0 | 2.0 | 0.00 | 0.00 | 0.00 | 92 | 1018.4 |
| 20260831055458 | 74 | 252 | 0.0 | 2.0 | 0.00 | 0.00 | 0.00 | 92 | 1018.4 |
| 20260831055000 | 74 | 252 | 0.0 | 2.0 | 0.00 | 0.00 | 0.00 | 92 | 1018.4 |
| 20260831054459 | 74 | 252 | 0.0 | 1.0 | 0.00 | 0.00 | 0.00 | 92 | 1018.4 |
| 20260831054000 | 74 | 252 | 0.0 | 1.0 | 0.00 | 0.00 | 0.00 | 92 | 1018.4 |
| 20260831053459 | 74 | 252 | 0.0 | 1.0 | 0.00 | 0.00 | 0.00 | 92 | 1018.4 |
| 20260831052959 | 74 | 252 | 0.0 | 2.0 | 0.00 | 0.00 | 0.00 | 92 | 1018.3 |
| 20260831052500 | 74 | 252 | 1.0 | 3.0 | 0.00 | 0.00 | 0.00 | 91 | 1018.3 |
| 20260831051959 | 74 | 252 | 0.0 | 3.0 | 0.00 | 0.00 | 0.00 | 91 | 1018.3 |
| 20260831051459 | 74 | 252 | 0.0 | 2.0 | 0.00 | 0.00 | 0.00 | 91 | 1018.2 |
| 20260831051000 | 74 | 252 | 0.0 | 1.0 | 0.00 | 0.00 | 0.00 | 91 | 1018.3 |
| 20260831050500 | 74 | 252 | 0.0 | 3.0 | 0.00 | 0.00 | 0.00 | 91 | 1018.3 |
| 20260831050004 | 74 | 252 | 1.0 | 3.0 | 0.00 | 0.00 | 0.00 | 91 | 1018.4 |
| 20260831045502 | 74 | 252 | 1.0 | 3.0 | 0.00 | 0.00 | 0.00 | 91 | 1018.4 |
| 20260831045002 | 74 | 252 | 1.0 | 3.0 | 0.00 | 0.00 | 0.00 | 91 | 1018.3 |
| 20260831044503 | 74 | 252 | 1.0 | 3.0 | 0.00 | 0.00 | 0.00 | 91 | 1018.4 |
| 20260831044002 | 74 | 252 | 0.0 | 3.0 | 0.00 | 0.00 | 0.00 | 91 | 1018.4 |
| 20260831043503 | 74 | 252 | 1.0 | 3.0 | 0.00 | 0.00 | 0.00 | 91 | 1018.4 |
| 20260831043003 | 74 | 252 | 1.0 | 2.0 | 0.00 | 0.00 | 0.00 | 91 | 1018.5 |
| 20260831042003 | 74 | 252 | 1.0 | 3.0 | 0.00 | 0.00 | 0.00 | 90 | 1018.4 |
| 20260831041504 | 75 | 252 | 1.0 | 3.0 | 0.00 | 0.00 | 0.00 | 90 | 1018.4 |
| 20260831041002 | 74 | 252 | 1.0 | 3.0 | 0.00 | 0.00 | 0.00 | 90 | 1018.5 |
| 20260831040005 | 74 | 250 | 0.0 | 2.0 | 0.00 | 0.00 | 0.00 | 90 | 1018.6 |
| 20260831035502 | 74 | 250 | 1.0 | 3.0 | 0.00 | 0.00 | 0.00 | 90 | 1018.7 |
| 20260831035003 | 74 | 250 | 1.0 | 3.0 | 0.00 | 0.00 | 0.00 | 90 | 1018.7 |
| 20260831034503 | 74 | 250 | 0.0 | 2.0 | 0.00 | 0.00 | 0.00 | 90 | 1018.7 |
| 20260831033503 | 74 | 250 | 1.0 | 2.0 | 0.00 | 0.00 | 0.00 | 90 | 1018.8 |
| 20260831033006 | 75 | 250 | 1.0 | 5.0 | 0.00 | 0.00 | 0.00 | 90 | 1018.9 |
| 20260831032503 | 74 | 250 | 1.0 | 5.0 | 0.00 | 0.00 | 0.00 | 90 | 1018.9 |
| 20260831032004 | 74 | 208 | 1.0 | 2.0 | 0.00 | 0.00 | 0.00 | 89 | 1018.8 |
| 20260831031504 | 75 | 208 | 1.0 | 2.0 | 0.00 | 0.00 | 0.00 | 89 | 1018.9 |
| 20260831031005 | 75 | 208 | 1.0 | 3.0 | 0.00 | 0.00 | 0.00 | 89 | 1018.9 |
| 20260831030503 | 74 | 208 | 1.0 | 3.0 | 0.00 | 0.00 | 0.00 | 89 | 1019.0 |
| 20260831030005 | 74 | 208 | 1.0 | 3.0 | 0.00 | 0.00 | 0.00 | 89 | 1019.0 |
| 20260831025005 | 74 | 208 | 0.0 | 4.0 | 0.00 | 0.00 | 0.00 | 89 | 1019.1 |
| 20260831024503 | 74 | 208 | 0.0 | 1.0 | 0.00 | 0.00 | 0.00 | 89 | 1019.2 |
| 20260831024004 | 74 | 208 | 0.0 | 2.0 | 0.00 | 0.00 | 0.00 | 89 | 1019.4 |
| 20260831023503 | 74 | 208 | 0.0 | 2.0 | 0.00 | 0.00 | 0.00 | 89 | 1019.4 |
| 20260831022504 | 75 | 208 | 1.0 | 2.0 | 0.00 | 0.00 | 0.00 | 88 | 1019.4 |
| 20260831021503 | 75 | 208 | 1.0 | 4.0 | 0.00 | 0.00 | 0.00 | 88 | 1019.3 |
| 20260831021003 | 75 | 208 | 1.0 | 4.0 | 0.00 | 0.00 | 0.00 | 88 | 1019.2 |
| 20260831020502 | 75 | 208 | 1.0 | 3.0 | 0.00 | 0.00 | 0.00 | 88 | 1019.1 |
| 20260831015503 | 75 | 208 | 1.0 | 3.0 | 0.00 | 0.00 | 0.00 | 88 | 1019.2 |
| 20260831015004 | 75 | 208 | 1.0 | 3.0 | 0.00 | 0.00 | 0.00 | 88 | 1019.2 |
| 20260831014504 | 76 | 208 | 1.0 | 3.0 | 0.00 | 0.00 | 0.00 | 88 | 1019.3 |
| 20260831014004 | 76 | 208 | 1.0 | 3.0 | 0.00 | 0.00 | 0.00 | 88 | 1019.3 |
| 20260831013505 | 76 | 208 | 1.0 | 3.0 | 0.00 | 0.00 | 0.00 | 87 | 1019.3 |
| 20260831013005 | 76 | 208 | 1.0 | 3.0 | 0.00 | 0.00 | 0.00 | 87 | 1019.4 |
| 20260831012503 | 76 | 208 | 0.0 | 3.0 | 0.00 | 0.00 | 0.00 | 87 | 1019.4 |
| 20260831012004 | 76 | 208 | 1.0 | 2.0 | 0.00 | 0.00 | 0.00 | 87 | 1019.4 |
| 20260831011503 | 76 | 208 | 1.0 | 3.0 | 0.00 | 0.00 | 0.00 | 87 | 1019.5 |
| 20260831011004 | 76 | 209 | 1.0 | 4.0 | 0.00 | 0.00 | 0.00 | 86 | 1019.6 |
| 20260831010504 | 76 | 208 | 1.0 | 4.0 | 0.00 | 0.00 | 0.00 | 86 | 1019.5 |
| 20260831010005 | 76 | 208 | 2.0 | 5.0 | 0.00 | 0.00 | 0.00 | 86 | 1019.4 |
| 20260831005501 | 77 | 207 | 1.0 | 5.0 | 0.00 | 0.00 | 0.00 | 85 | 1019.3 |
| 20260831005003 | 77 | 206 | 1.0 | 5.0 | 0.00 | 0.00 | 0.00 | 85 | 1019.2 |
| 20260831004502 | 77 | 206 | 1.0 | 5.0 | 0.00 | 0.00 | 0.00 | 85 | 1019.2 |
| 20260831004003 | 77 | 206 | 2.0 | 5.0 | 0.00 | 0.00 | 0.00 | 85 | 1019.2 |
| 20260831003501 | 77 | 232 | 2.0 | 6.0 | 0.00 | 0.00 | 0.00 | 85 | 1019.1 |
| 20260831003004 | 77 | 232 | 2.0 | 7.0 | 0.00 | 0.00 | 0.00 | 85 | 1019.1 |
| 20260831002502 | 77 | 213 | 2.0 | 5.0 | 0.00 | 0.00 | 0.00 | 84 | 1019.1 |
| 20260831002003 | 77 | 218 | 2.0 | 9.0 | 0.00 | 0.00 | 0.00 | 85 | 1019.0 |
| 20260831001502 | 77 | 250 | 2.0 | 9.0 | 0.00 | 0.00 | 0.00 | 84 | 1018.9 |
| 20260831001002 | 78 | 198 | 2.0 | 7.0 | 0.00 | 0.00 | 0.00 | 84 | 1019.0 |
| 20260831000501 | 78 | 232 | 2.0 | 7.0 | 0.00 | 0.00 | 0.00 | 84 | 1019.0 |
| 20260830235003 | 78 | 194 | 3.0 | 6.0 | 0.00 | 0.00 | 0.00 | 83 | 1018.9 |
| 20260830234503 | 79 | 182 | 2.0 | 6.0 | 0.00 | 0.00 | 0.00 | 83 | 1018.9 |
| 20260830234002 | 79 | 151 | 2.0 | 9.0 | 0.00 | 0.00 | 0.00 | 82 | 1018.9 |
| 20260830233004 | 79 | 189 | 2.0 | 7.0 | 0.00 | 0.00 | 0.00 | 81 | 1018.9 |
| 20260830232502 | 80 | 178 | 2.0 | 8.0 | 0.00 | 0.00 | 0.00 | 81 | 1018.9 |
| 20260830232003 | 80 | 211 | 2.0 | 8.0 | 0.00 | 0.00 | 0.00 | 80 | 1019.0 |
| 20260830231503 | 80 | 219 | 2.0 | 5.0 | 0.00 | 0.00 | 0.00 | 78 | 1019.0 |
| 20260830231003 | 80 | 255 | 1.0 | 5.0 | 0.00 | 0.00 | 0.00 | 77 | 1019.0 |
| 20260830230502 | 80 | 257 | 1.0 | 2.0 | 0.00 | 0.00 | 0.00 | 75 | 1019.0 |
| 20260830230005 | 80 | 257 | 1.0 | 2.0 | 0.00 | 0.00 | 0.00 | 75 | 1018.9 |
| 20260830225502 | 81 | 257 | 1.0 | 4.0 | 0.00 | 0.00 | 0.00 | 75 | 1018.8 |
| 20260830225003 | 81 | 258 | 1.0 | 2.0 | 0.00 | 0.00 | 0.00 | 75 | 1018.8 |
| 20260830224012 | 81 | 258 | 1.0 | 2.0 | 0.00 | 0.00 | 0.00 | 73 | 1018.8 |
| 20260830223004 | 82 | 258 | 1.0 | 4.0 | 0.00 | 0.00 | 0.00 | 71 | 1018.8 |
| 20260830222002 | 83 | 257 | 1.0 | 3.0 | 0.00 | 0.00 | 0.00 | 69 | 1018.7 |
| 20260830221503 | 83 | 257 | 1.0 | 7.0 | 0.00 | 0.00 | 0.00 | 69 | 1018.6 |
| 20260830221003 | 84 | 259 | 1.0 | 7.0 | 0.00 | 0.00 | 0.00 | 68 | 1018.5 |
| 20260830220502 | 84 | 281 | 1.0 | 4.0 | 0.00 | 0.00 | 0.00 | 67 | 1018.4 |
| 20260830220007 | 83 | 281 | 1.0 | 4.0 | 0.00 | 0.00 | 0.00 | 68 | 1018.4 |
| 20260830215501 | 83 | 281 | 1.0 | 3.0 | 0.00 | 0.00 | 0.00 | 69 | 1018.4 |
| 20260830215003 | 84 | 281 | 2.0 | 4.0 | 0.00 | 0.00 | 0.00 | 66 | 1018.4 |